Time,TemperatureF,DewpointF,PressureIn,WindDirection,WindDirectionDegrees,WindSpeedMPH,WindSpeedGustMPH,Humidity,HourlyPrecipIn,Conditions,Clouds,dailyrainin,SoftwareType,DateUTC
2013-09-20 00:03:00,77.0,71.1,29.89,South,169,0.0,1.0,82,0.00,,,0.00,VWS V14.01,2013-09-20 05:03:00,
2013-09-20 00:08:00,76.8,71.2,29.89,South,172,1.0,5.0,83,0.00,,,0.00,VWS V14.01,2013-09-20 05:08:00,
2013-09-20 00:13:00,76.7,71.2,29.89,South,179,0.0,1.0,83,0.00,,,0.00,VWS V14.01,2013-09-20 05:13:00,
2013-09-20 00:18:00,76.6,71.1,29.88,South,170,0.0,6.0,83,0.00,,,0.00,VWS V14.01,2013-09-20 05:18:00,
2013-09-20 00:23:00,76.5,71.0,29.88,South,176,0.0,1.0,83,0.00,,,0.00,VWS V14.01,2013-09-20 05:23:00,
2013-09-20 00:28:00,76.5,71.0,29.88,South,176,0.0,2.0,83,0.00,,,0.00,VWS V14.01,2013-09-20 05:28:00,
2013-09-20 00:33:00,76.4,70.9,29.88,South,185,0.0,3.0,83,0.00,,,0.00,VWS V14.01,2013-09-20 05:33:00,
2013-09-20 00:38:00,76.3,71.1,29.87,SSE,165,5.0,5.0,84,0.00,,,0.00,VWS V14.01,2013-09-20 05:38:00,
2013-09-20 00:43:00,76.2,71.0,29.87,SW,218,0.0,2.0,84,0.00,,,0.00,VWS V14.01,2013-09-20 05:43:00,
2013-09-20 00:48:00,76.2,70.7,29.88,South,173,1.0,5.0,83,0.00,,,0.00,VWS V14.01,2013-09-20 05:48:00,
2013-09-20 00:53:00,76.1,70.9,29.88,SSW,196,0.0,3.0,84,0.00,,,0.00,VWS V14.01,2013-09-20 05:53:00,
2013-09-20 00:58:00,76.1,70.6,29.87,SSW,202,0.0,3.0,83,0.00,,,0.00,VWS V14.01,2013-09-20 05:58:00,
2013-09-20 01:03:00,76.0,70.8,29.88,SSW,202,0.0,0.0,84,0.00,,,0.00,VWS V14.01,2013-09-20 06:03:00,
2013-09-20 01:08:00,76.0,70.8,29.88,SSW,202,0.0,1.0,84,0.00,,,0.00,VWS V14.01,2013-09-20 06:08:00,
2013-09-20 01:13:00,75.9,70.7,29.88,SSW,198,0.0,1.0,84,0.00,,,0.00,VWS V14.01,2013-09-20 06:13:00,
2013-09-20 01:18:00,75.8,70.6,29.88,SSW,198,0.0,1.0,84,0.00,,,0.00,VWS V14.01,2013-09-20 06:18:00,
2013-09-20 01:23:00,75.7,70.5,29.88,SSW,199,0.0,0.0,84,0.00,,,0.00,VWS V14.01,2013-09-20 06:23:00,
2013-09-20 01:28:00,75.6,70.4,29.88,SSW,199,0.0,0.0,84,0.00,,,0.00,VWS V14.01,2013-09-20 06:28:00,
2013-09-20 01:33:00,75.5,70.3,29.88,South,175,0.0,1.0,84,0.00,,,0.00,VWS V14.01,2013-09-20 06:33:00,
2013-09-20 01:38:00,75.4,70.2,29.88,South,181,0.0,1.0,84,0.00,,,0.00,VWS V14.01,2013-09-20 06:38:00,
2013-09-20 01:43:00,75.3,70.1,29.87,East,98,4.0,7.0,84,0.00,,,0.00,VWS V14.01,2013-09-20 06:43:00,
2013-09-20 01:48:00,75.2,70.0,29.88,SE,132,0.0,7.0,84,0.00,,,0.00,VWS V14.01,2013-09-20 06:48:00,
2013-09-20 01:53:00,75.2,70.0,29.87,WSW,241,0.0,2.0,84,0.00,,,0.00,VWS V14.01,2013-09-20 06:53:00,
2013-09-20 01:58:00,75.1,69.9,29.87,South,173,0.0,6.0,84,0.00,,,0.00,VWS V14.01,2013-09-20 06:58:00,
2013-09-20 02:03:00,75.1,69.9,29.87,South,173,0.0,4.0,84,0.00,,,0.00,VWS V14.01,2013-09-20 07:03:00,
2013-09-20 02:08:00,75.0,69.8,29.87,South,173,0.0,4.0,84,0.00,,,0.00,VWS V14.01,2013-09-20 07:08:00,
2013-09-20 02:13:00,74.9,69.7,29.87,South,173,0.0,1.0,84,0.00,,,0.00,VWS V14.01,2013-09-20 07:13:00,
2013-09-20 02:18:00,74.8,70.0,29.86,South,173,0.0,1.0,85,0.00,,,0.00,VWS V14.01,2013-09-20 07:18:00,
2013-09-20 02:23:00,74.7,69.9,29.86,South,173,0.0,4.0,85,0.00,,,0.00,VWS V14.01,2013-09-20 07:23:00,
2013-09-20 02:28:00,74.6,69.8,29.86,South,173,0.0,4.0,85,0.00,,,0.00,VWS V14.01,2013-09-20 07:28:00,
2013-09-20 02:33:00,74.5,69.7,29.85,South,173,0.0,0.0,85,0.00,,,0.00,VWS V14.01,2013-09-20 07:33:00,
2013-09-20 02:38:00,74.4,69.6,29.85,SSW,205,3.0,3.0,85,0.00,,,0.00,VWS V14.01,2013-09-20 07:38:00,
2013-09-20 02:43:00,74.4,69.6,29.85,South,173,0.0,1.0,85,0.00,,,0.00,VWS V14.01,2013-09-20 07:43:00,
2013-09-20 02:48:00,74.4,69.6,29.85,South,173,0.0,1.0,85,0.00,,,0.00,VWS V14.01,2013-09-20 07:48:00,
2013-09-20 02:53:00,74.4,69.6,29.85,South,177,0.0,5.0,85,0.00,,,0.00,VWS V14.01,2013-09-20 07:53:00,
2013-09-20 02:58:00,74.5,69.3,29.85,South,173,1.0,11.0,84,0.00,,,0.00,VWS V14.01,2013-09-20 07:58:00,
2013-09-20 03:03:00,74.6,69.4,29.85,WSW,249,0.0,1.0,84,0.00,,,0.00,VWS V14.01,2013-09-20 08:03:00,
2013-09-20 03:08:00,74.7,69.6,29.85,South,184,0.0,1.0,84,0.00,,,0.00,VWS V14.01,2013-09-20 08:08:00,
2013-09-20 03:13:00,74.7,69.6,29.85,SE,143,0.0,4.0,84,0.00,,,0.00,VWS V14.01,2013-09-20 08:13:00,
2013-09-20 03:18:00,74.8,69.7,29.85,SSW,207,0.0,5.0,84,0.00,,,0.00,VWS V14.01,2013-09-20 08:18:00,
2013-09-20 03:23:00,74.8,69.7,29.85,SSE,159,2.0,6.0,84,0.00,,,0.00,VWS V14.01,2013-09-20 08:23:00,
2013-09-20 03:28:00,74.9,69.4,29.85,South,178,0.0,6.0,83,0.00,,,0.00,VWS V14.01,2013-09-20 08:28:00,
2013-09-20 03:33:00,75.0,69.5,29.85,SW,215,0.0,6.0,83,0.00,,,0.00,VWS V14.01,2013-09-20 08:33:00,
2013-09-20 03:38:00,75.0,69.5,29.84,South,182,0.0,6.0,83,0.00,,,0.00,VWS V14.01,2013-09-20 08:38:00,
2013-09-20 03:43:00,75.1,69.6,29.84,South,179,0.0,4.0,83,0.00,,,0.00,VWS V14.01,2013-09-20 08:43:00,
2013-09-20 03:48:00,75.1,69.2,29.84,SSW,207,0.0,5.0,82,0.00,,,0.00,VWS V14.01,2013-09-20 08:48:00,
2013-09-20 03:53:00,75.1,69.2,29.85,WSW,248,1.0,5.0,82,0.00,,,0.00,VWS V14.01,2013-09-20 08:53:00,
2013-09-20 03:58:00,75.1,69.2,29.85,WSW,248,0.0,5.0,82,0.00,,,0.00,VWS V14.01,2013-09-20 08:58:00,
2013-09-20 04:03:00,74.9,69.4,29.86,WSW,248,0.0,0.0,83,0.00,,,0.00,VWS V14.01,2013-09-20 09:03:00,
2013-09-20 04:08:00,74.9,69.4,29.85,WSW,248,0.0,0.0,83,0.00,,,0.00,VWS V14.01,2013-09-20 09:08:00,
2013-09-20 04:13:00,74.8,69.3,29.85,WSW,248,0.0,0.0,83,0.00,,,0.00,VWS V14.01,2013-09-20 09:13:00,
2013-09-20 04:18:00,74.7,69.6,29.85,WSW,248,0.0,0.0,84,0.00,,,0.00,VWS V14.01,2013-09-20 09:18:00,
2013-09-20 04:23:00,74.6,69.4,29.85,WSW,248,0.0,0.0,84,0.00,,,0.00,VWS V14.01,2013-09-20 09:23:00,
2013-09-20 04:28:00,74.5,69.3,29.85,WSW,248,0.0,1.0,84,0.00,,,0.00,VWS V14.01,2013-09-20 09:28:00,
2013-09-20 04:33:00,74.4,69.3,29.85,WSW,248,0.0,1.0,84,0.00,,,0.00,VWS V14.01,2013-09-20 09:33:00,
2013-09-20 04:38:00,74.4,69.3,29.85,WSW,248,0.0,3.0,84,0.00,,,0.00,VWS V14.01,2013-09-20 09:38:00,
2013-09-20 04:43:00,74.4,69.3,29.86,WSW,248,0.0,1.0,84,0.00,,,0.00,VWS V14.01,2013-09-20 09:43:00,
2013-09-20 04:48:00,74.4,69.3,29.86,WSW,248,0.0,1.0,84,0.00,,,0.00,VWS V14.01,2013-09-20 09:48:00,
2013-09-20 04:53:00,74.5,69.3,29.85,WSW,248,0.0,0.0,84,0.00,,,0.00,VWS V14.01,2013-09-20 09:53:00,
2013-09-20 04:58:00,74.5,69.3,29.85,WSW,248,0.0,1.0,84,0.00,,,0.00,VWS V14.01,2013-09-20 09:58:00,
2013-09-20 05:03:00,74.6,69.4,29.85,WSW,248,0.0,1.0,84,0.00,,,0.00,VWS V14.01,2013-09-20 10:03:00,
2013-09-20 05:09:00,74.5,69.3,29.85,WSW,248,0.0,1.0,84,0.00,,,0.00,VWS V14.01,2013-09-20 10:09:00,
2013-09-20 05:14:00,74.5,69.0,29.85,WSW,248,0.0,0.0,83,0.00,,,0.00,VWS V14.01,2013-09-20 10:14:00,
2013-09-20 05:19:00,74.4,68.9,29.85,WSW,248,0.0,0.0,83,0.00,,,0.00,VWS V14.01,2013-09-20 10:19:00,
2013-09-20 05:24:00,74.4,69.3,29.86,WSW,248,0.0,0.0,84,0.00,,,0.00,VWS V14.01,2013-09-20 10:24:00,
2013-09-20 05:29:00,74.3,69.2,29.85,SW,236,0.0,2.0,84,0.04,,,0.04,VWS V14.01,2013-09-20 10:29:00,
2013-09-20 05:34:00,74.0,69.2,29.85,SW,236,0.0,0.0,85,0.08,,,0.08,VWS V14.01,2013-09-20 10:34:00,
2013-09-20 05:39:00,73.5,68.7,29.84,SW,236,0.0,1.0,85,0.08,,,0.08,VWS V14.01,2013-09-20 10:39:00,
2013-09-20 05:44:00,73.1,68.3,29.85,SW,236,0.0,0.0,85,0.08,,,0.08,VWS V14.01,2013-09-20 10:44:00,
2013-09-20 05:49:00,72.8,68.0,29.85,SW,236,0.0,0.0,85,0.08,,,0.08,VWS V14.01,2013-09-20 10:49:00,
2013-09-20 05:54:00,72.6,67.8,29.84,SW,236,0.0,0.0,85,0.08,,RA,0.08,VWS V14.01,2013-09-20 10:54:00,
2013-09-20 05:59:00,72.4,67.6,29.85,SW,236,0.0,1.0,85,0.08,,RA,0.08,VWS V14.01,2013-09-20 10:59:00,
2013-09-20 06:04:00,72.3,67.5,29.85,SW,236,0.0,1.0,85,0.08,,RA,0.08,VWS V14.01,2013-09-20 11:04:00,
2013-09-20 06:09:00,72.1,67.3,29.86,SW,236,0.0,1.0,85,0.08,,RA,0.08,VWS V14.01,2013-09-20 11:09:00,
2013-09-20 06:14:00,72.0,67.2,29.85,SW,236,0.0,0.0,85,0.08,,RA,0.08,VWS V14.01,2013-09-20 11:14:00,
2013-09-20 06:19:00,72.0,66.9,29.85,SW,236,0.0,0.0,84,0.08,,RA,0.08,VWS V14.01,2013-09-20 11:19:00,
2013-09-20 06:24:00,71.9,66.8,29.85,SW,236,0.0,1.0,84,0.08,,RA,0.08,VWS V14.01,2013-09-20 11:24:00,
2013-09-20 06:29:00,71.8,66.7,29.85,SW,236,0.0,1.0,84,0.08,,RA,0.08,VWS V14.01,2013-09-20 11:29:00,
2013-09-20 06:34:00,71.8,66.7,29.85,SW,236,0.0,0.0,84,0.01,,RA,0.08,VWS V14.01,2013-09-20 11:34:00,
2013-09-20 06:39:00,71.8,66.7,29.86,SW,236,0.0,1.0,84,0.01,,RA,0.08,VWS V14.01,2013-09-20 11:39:00,
2013-09-20 06:44:00,71.8,66.7,29.85,SW,236,0.0,1.0,84,0.00,,,0.08,VWS V14.01,2013-09-20 11:44:00,
2013-09-20 06:49:00,71.8,66.7,29.86,SW,236,0.0,3.0,84,0.00,,,0.08,VWS V14.01,2013-09-20 11:49:00,
2013-09-20 06:54:00,71.9,66.5,29.85,SW,236,0.0,0.0,83,0.00,,,0.08,VWS V14.01,2013-09-20 11:54:00,
2013-09-20 06:59:00,71.9,66.8,29.86,SW,236,0.0,0.0,84,0.00,,,0.08,VWS V14.01,2013-09-20 11:59:00,
2013-09-20 07:04:00,71.9,66.5,29.86,SW,236,0.0,2.0,83,0.00,,,0.08,VWS V14.01,2013-09-20 12:04:00,
2013-09-20 07:09:00,71.9,66.5,29.85,SW,236,3.0,3.0,83,0.01,,,0.09,VWS V14.01,2013-09-20 12:09:00,
2013-09-20 07:14:00,71.9,66.5,29.85,WSW,246,0.0,2.0,83,0.01,,,0.09,VWS V14.01,2013-09-20 12:14:00,
2013-09-20 07:19:00,72.0,66.6,29.86,WSW,246,0.0,2.0,83,0.01,,,0.09,VWS V14.01,2013-09-20 12:19:00,
2013-09-20 07:24:00,72.0,66.6,29.86,WSW,246,0.0,0.0,83,0.01,,,0.09,VWS V14.01,2013-09-20 12:24:00,
2013-09-20 07:29:00,72.0,66.6,29.86,WSW,246,0.0,1.0,83,0.01,,,0.09,VWS V14.01,2013-09-20 12:29:00,
2013-09-20 07:34:00,72.0,66.6,29.86,SW,232,0.0,3.0,83,0.01,,,0.09,VWS V14.01,2013-09-20 12:34:00,
2013-09-20 07:39:00,71.9,66.5,29.86,SW,232,0.0,3.0,83,0.01,,,0.09,VWS V14.01,2013-09-20 12:39:00,
2013-09-20 07:44:00,71.9,66.5,29.87,SW,229,0.0,4.0,83,0.01,,,0.09,VWS V14.01,2013-09-20 12:44:00,
2013-09-20 07:49:00,71.9,66.5,29.87,SW,229,0.0,4.0,83,0.01,,,0.09,VWS V14.01,2013-09-20 12:49:00,
2013-09-20 07:54:00,71.9,66.5,29.87,SW,229,0.0,1.0,83,0.01,,,0.09,VWS V14.01,2013-09-20 12:54:00,
2013-09-20 07:59:00,71.8,66.4,29.87,SW,229,0.0,2.0,83,0.01,,,0.09,VWS V14.01,2013-09-20 12:59:00,
2013-09-20 08:04:00,71.6,66.2,29.87,SW,229,0.0,3.0,83,0.01,,,0.09,VWS V14.01,2013-09-20 13:04:00,
2013-09-20 08:09:00,71.6,66.2,29.87,SW,229,0.0,3.0,83,0.01,,,0.09,VWS V14.01,2013-09-20 13:09:00,
2013-09-20 08:14:00,71.5,66.1,29.87,SW,229,0.0,1.0,83,0.00,,,0.09,VWS V14.01,2013-09-20 13:14:00,
2013-09-20 08:19:00,71.5,66.1,29.88,SSW,208,0.0,4.0,83,0.00,,,0.09,VWS V14.01,2013-09-20 13:19:00,
2013-09-20 08:24:00,71.5,66.1,29.88,SSW,209,0.0,3.0,83,0.00,,,0.09,VWS V14.01,2013-09-20 13:24:00,
2013-09-20 08:29:00,71.4,66.0,29.88,SW,224,1.0,5.0,83,0.01,,,0.10,VWS V14.01,2013-09-20 13:29:00,
2013-09-20 08:34:00,71.2,65.8,29.88,WSW,240,0.0,2.0,83,0.01,,,0.10,VWS V14.01,2013-09-20 13:34:00,
2013-09-20 08:39:00,71.1,65.7,29.87,WSW,240,0.0,3.0,83,0.03,,,0.12,VWS V14.01,2013-09-20 13:39:00,
2013-09-20 08:44:00,71.1,65.7,29.87,WSW,240,2.0,2.0,83,0.05,,-RA,0.14,VWS V14.01,2013-09-20 13:44:00,
2013-09-20 08:49:00,71.0,65.6,29.87,WSW,240,0.0,3.0,83,0.06,,-RA,0.15,VWS V14.01,2013-09-20 13:49:00,
2013-09-20 08:54:00,70.9,65.5,29.87,WSW,240,0.0,1.0,83,0.06,,RA,0.15,VWS V14.01,2013-09-20 13:54:00,
2013-09-20 08:59:00,70.9,65.5,29.87,WSW,240,0.0,1.0,83,0.06,,RA,0.15,VWS V14.01,2013-09-20 13:59:00,
2013-09-20 09:04:00,70.9,65.5,29.87,WSW,240,0.0,1.0,83,0.06,,RA,0.15,VWS V14.01,2013-09-20 14:04:00,
2013-09-20 09:09:00,70.9,65.5,29.88,WSW,240,0.0,1.0,83,0.06,,RA,0.15,VWS V14.01,2013-09-20 14:09:00,
2013-09-20 09:14:00,70.9,65.5,29.87,WSW,240,0.0,1.0,83,0.06,,RA,0.15,VWS V14.01,2013-09-20 14:14:00,
2013-09-20 09:19:00,70.9,65.5,29.88,WSW,240,0.0,1.0,83,0.06,,RA,0.15,VWS V14.01,2013-09-20 14:19:00,
2013-09-20 09:24:00,70.9,65.5,29.88,WSW,240,0.0,0.0,83,0.06,,RA,0.15,VWS V14.01,2013-09-20 14:24:00,
2013-09-20 09:29:00,70.8,65.4,29.88,WSW,240,0.0,1.0,83,0.06,,RA,0.15,VWS V14.01,2013-09-20 14:29:00,
2013-09-20 09:34:00,71.0,65.6,29.87,WSW,240,0.0,1.0,83,0.05,,RA,0.15,VWS V14.01,2013-09-20 14:34:00,
2013-09-20 09:39:00,71.1,65.3,29.88,WSW,240,0.0,3.0,82,0.05,,RA,0.15,VWS V14.01,2013-09-20 14:39:00,
2013-09-20 09:44:00,71.3,65.5,29.88,WSW,240,0.0,4.0,82,0.02,,-RA,0.15,VWS V14.01,2013-09-20 14:44:00,
2013-09-20 09:49:00,71.2,65.8,29.88,WSW,240,0.0,4.0,83,0.02,,-RA,0.15,VWS V14.01,2013-09-20 14:49:00,
2013-09-20 09:54:00,71.2,65.8,29.89,WSW,241,0.0,2.0,83,0.00,,-RA,0.15,VWS V14.01,2013-09-20 14:54:00,
2013-09-20 09:59:00,71.2,65.4,29.89,WSW,241,0.0,2.0,82,0.00,,-RA,0.15,VWS V14.01,2013-09-20 14:59:00,
2013-09-20 10:04:00,71.2,65.4,29.88,WSW,241,0.0,1.0,82,0.00,,-RA,0.15,VWS V14.01,2013-09-20 15:04:00,
2013-09-20 10:09:00,71.2,65.8,29.89,WSW,241,0.0,4.0,83,0.00,,-RA,0.15,VWS V14.01,2013-09-20 15:09:00,
2013-09-20 10:14:00,71.2,65.8,29.89,SW,236,1.0,6.0,83,0.00,,-RA,0.15,VWS V14.01,2013-09-20 15:14:00,
2013-09-20 10:19:00,71.1,65.7,29.89,SW,236,0.0,6.0,83,0.00,,-RA,0.15,VWS V14.01,2013-09-20 15:19:00,
2013-09-20 10:24:00,71.2,65.8,29.89,SW,236,0.0,4.0,83,0.00,,-RA,0.15,VWS V14.01,2013-09-20 15:24:00,
2013-09-20 10:29:00,71.3,65.9,29.89,SW,236,0.0,4.0,83,0.00,,-RA,0.15,VWS V14.01,2013-09-20 15:29:00,
2013-09-20 10:34:00,71.2,66.1,29.89,SW,236,0.0,3.0,84,0.00,,-RA,0.15,VWS V14.01,2013-09-20 15:34:00,
2013-09-20 10:39:00,71.1,66.0,29.89,WSW,241,0.0,6.0,84,0.00,,-RA,0.15,VWS V14.01,2013-09-20 15:39:00,
2013-09-20 10:44:00,71.1,66.0,29.89,WSW,241,1.0,1.0,84,0.01,,,0.16,VWS V14.01,2013-09-20 15:44:00,
2013-09-20 10:49:00,71.1,66.0,29.89,WSW,241,0.0,1.0,84,0.01,,,0.16,VWS V14.01,2013-09-20 15:49:00,
2013-09-20 10:54:00,71.1,66.0,29.89,WSW,241,0.0,2.0,84,0.01,,,0.16,VWS V14.01,2013-09-20 15:54:00,
2013-09-20 10:59:00,71.1,66.0,29.89,WSW,241,4.0,4.0,84,0.01,,,0.16,VWS V14.01,2013-09-20 15:59:00,
2013-09-20 11:04:00,71.2,66.1,29.89,WSW,241,1.0,1.0,84,0.01,,,0.16,VWS V14.01,2013-09-20 16:04:00,
2013-09-20 11:09:00,71.3,66.2,29.89,WSW,241,0.0,1.0,84,0.01,,,0.16,VWS V14.01,2013-09-20 16:09:00,
2013-09-20 11:14:00,71.4,66.3,29.88,WSW,241,0.0,3.0,84,0.01,,,0.16,VWS V14.01,2013-09-20 16:14:00,
2013-09-20 11:19:00,71.3,66.2,29.88,WSW,241,0.0,3.0,84,0.01,,,0.16,VWS V14.01,2013-09-20 16:19:00,
2013-09-20 11:24:00,71.5,66.4,29.88,WSW,241,0.0,1.0,84,0.01,,,0.16,VWS V14.01,2013-09-20 16:24:00,
2013-09-20 11:29:00,71.6,66.5,29.88,WSW,241,0.0,1.0,84,0.01,,,0.16,VWS V14.01,2013-09-20 16:29:00,
2013-09-20 11:34:00,71.7,66.6,29.88,WSW,241,0.0,0.0,84,0.01,,,0.16,VWS V14.01,2013-09-20 16:34:00,
2013-09-20 11:39:00,71.8,67.1,29.88,WSW,237,0.0,4.0,85,0.01,,,0.16,VWS V14.01,2013-09-20 16:39:00,
2013-09-20 11:44:00,72.0,66.9,29.89,WSW,237,2.0,3.0,84,0.00,,,0.16,VWS V14.01,2013-09-20 16:44:00,
2013-09-20 11:49:00,72.1,67.3,29.89,WSW,237,0.0,3.0,85,0.00,,,0.16,VWS V14.01,2013-09-20 16:49:00,
2013-09-20 11:54:00,72.2,67.4,29.89,WSW,237,0.0,0.0,85,0.00,,,0.16,VWS V14.01,2013-09-20 16:54:00,
2013-09-20 11:59:00,72.1,67.3,29.89,WSW,237,0.0,1.0,85,0.00,,,0.16,VWS V14.01,2013-09-20 16:59:00,
2013-09-20 12:04:00,72.1,67.3,29.89,WSW,237,1.0,1.0,85,0.00,,,0.16,VWS V14.01,2013-09-20 17:04:00,
2013-09-20 12:09:00,72.0,67.2,29.89,WSW,242,0.0,3.0,85,0.00,,,0.16,VWS V14.01,2013-09-20 17:09:00,
2013-09-20 12:14:00,72.0,67.2,29.88,WSW,242,0.0,1.0,85,0.00,,,0.16,VWS V14.01,2013-09-20 17:14:00,
2013-09-20 12:19:00,72.0,67.2,29.88,WSW,242,0.0,1.0,85,0.01,,,0.17,VWS V14.01,2013-09-20 17:19:00,
2013-09-20 12:24:00,71.9,67.2,29.88,WSW,242,0.0,1.0,85,0.01,,,0.17,VWS V14.01,2013-09-20 17:24:00,
2013-09-20 12:29:00,72.0,67.2,29.88,WSW,242,0.0,1.0,85,0.01,,,0.17,VWS V14.01,2013-09-20 17:29:00,
2013-09-20 12:34:00,72.1,67.3,29.88,WSW,242,1.0,1.0,85,0.01,,,0.17,VWS V14.01,2013-09-20 17:34:00,
2013-09-20 12:39:00,72.0,67.2,29.88,WSW,242,0.0,1.0,85,0.01,,,0.17,VWS V14.01,2013-09-20 17:39:00,
2013-09-20 12:44:00,71.9,67.2,29.88,WSW,242,0.0,3.0,85,0.01,,,0.17,VWS V14.01,2013-09-20 17:44:00,
2013-09-20 12:49:00,72.0,67.2,29.87,WSW,242,0.0,3.0,85,0.01,,,0.17,VWS V14.01,2013-09-20 17:49:00,
2013-09-20 12:54:00,72.2,67.4,29.87,WSW,242,0.0,0.0,85,0.01,,-RA,0.17,VWS V14.01,2013-09-20 17:54:00,
2013-09-20 12:59:00,72.2,67.4,29.87,WSW,242,0.0,1.0,85,0.01,,-RA,0.17,VWS V14.01,2013-09-20 17:59:00,
2013-09-20 13:04:00,72.3,67.5,29.87,WSW,242,0.0,1.0,85,0.01,,-RA,0.17,VWS V14.01,2013-09-20 18:04:00,
2013-09-20 13:09:00,72.3,67.5,29.86,WSW,242,0.0,1.0,85,0.01,,-RA,0.17,VWS V14.01,2013-09-20 18:09:00,
2013-09-20 13:14:00,72.5,67.7,29.86,WSW,242,0.0,0.0,85,0.02,,-RA,0.18,VWS V14.01,2013-09-20 18:14:00,
2013-09-20 13:19:00,72.4,68.0,29.86,WSW,242,0.0,1.0,86,0.02,,-RA,0.18,VWS V14.01,2013-09-20 18:19:00,
2013-09-20 13:24:00,72.2,67.4,29.86,WSW,242,0.0,1.0,85,0.01,,-RA,0.18,VWS V14.01,2013-09-20 18:24:00,
2013-09-20 13:29:00,72.2,67.4,29.86,WSW,242,0.0,2.0,85,0.01,,-RA,0.18,VWS V14.01,2013-09-20 18:29:00,
2013-09-20 13:34:00,72.3,67.5,29.86,WSW,242,0.0,1.0,85,0.01,,-RA,0.18,VWS V14.01,2013-09-20 18:34:00,
2013-09-20 13:39:00,72.4,67.6,29.86,WSW,242,0.0,1.0,85,0.01,,-RA,0.18,VWS V14.01,2013-09-20 18:39:00,
2013-09-20 13:44:00,72.3,67.5,29.85,WSW,242,0.0,1.0,85,0.01,,-RA,0.18,VWS V14.01,2013-09-20 18:44:00,
2013-09-20 13:49:00,72.4,67.6,29.85,WSW,242,0.0,1.0,85,0.02,,-RA,0.19,VWS V14.01,2013-09-20 18:49:00,
2013-09-20 13:54:00,72.4,67.6,29.85,WSW,242,0.0,0.0,85,0.02,,-RA,0.19,VWS V14.01,2013-09-20 18:54:00,
2013-09-20 13:59:00,72.4,67.6,29.85,WSW,242,0.0,1.0,85,0.02,,-RA,0.19,VWS V14.01,2013-09-20 18:59:00,
2013-09-20 14:04:00,72.4,67.6,29.86,WSW,242,0.0,3.0,85,0.02,,-RA,0.19,VWS V14.01,2013-09-20 19:04:00,
2013-09-20 14:09:00,72.3,67.5,29.85,WSW,242,0.0,3.0,85,0.02,,-RA,0.19,VWS V14.01,2013-09-20 19:09:00,
2013-09-20 14:14:00,72.2,67.4,29.85,WSW,242,0.0,0.0,85,0.01,,-RA,0.19,VWS V14.01,2013-09-20 19:14:00,
2013-09-20 14:19:00,72.1,67.3,29.85,WSW,242,0.0,1.0,85,0.01,,-RA,0.19,VWS V14.01,2013-09-20 19:19:00,
2013-09-20 14:25:00,72.0,67.2,29.85,WSW,242,0.0,3.0,85,0.01,,-RA,0.19,VWS V14.01,2013-09-20 19:25:00,
2013-09-20 14:30:00,71.9,67.2,29.84,WSW,246,0.0,3.0,85,0.01,,-RA,0.19,VWS V14.01,2013-09-20 19:30:00,
2013-09-20 14:35:00,71.7,66.9,29.84,WSW,246,0.0,0.0,85,0.02,,-RA,0.20,VWS V14.01,2013-09-20 19:35:00,
2013-09-20 14:40:00,71.9,67.2,29.84,WSW,246,0.0,0.0,85,0.02,,-RA,0.20,VWS V14.01,2013-09-20 19:40:00,
2013-09-20 14:45:00,71.9,67.2,29.84,WSW,246,0.0,1.0,85,0.02,,-RA,0.20,VWS V14.01,2013-09-20 19:45:00,
2013-09-20 14:50:00,71.8,67.1,29.84,WSW,246,0.0,2.0,85,0.02,,-RA,0.20,VWS V14.01,2013-09-20 19:50:00,
2013-09-20 14:55:00,71.8,67.1,29.83,WSW,246,0.0,0.0,85,0.02,,RA,0.21,VWS V14.01,2013-09-20 19:55:00,
2013-09-20 15:00:00,71.7,66.9,29.83,WSW,246,0.0,0.0,85,0.02,,RA,0.21,VWS V14.01,2013-09-20 20:00:00,
2013-09-20 15:05:00,71.5,66.8,29.83,WSW,246,0.0,1.0,85,0.03,,RA,0.22,VWS V14.01,2013-09-20 20:05:00,
2013-09-20 15:10:00,71.5,66.8,29.83,WSW,246,0.0,1.0,85,0.03,,RA,0.22,VWS V14.01,2013-09-20 20:10:00,
2013-09-20 15:15:00,71.5,66.8,29.83,WSW,246,0.0,0.0,85,0.03,,RA,0.22,VWS V14.01,2013-09-20 20:15:00,
2013-09-20 15:20:00,71.6,66.5,29.83,WSW,246,0.0,0.0,84,0.04,,RA,0.23,VWS V14.01,2013-09-20 20:20:00,
2013-09-20 15:25:00,71.7,66.6,29.83,WSW,246,0.0,0.0,84,0.04,,RA,0.23,VWS V14.01,2013-09-20 20:25:00,
2013-09-20 15:30:00,71.7,66.6,29.83,WSW,246,1.0,3.0,84,0.04,,RA,0.23,VWS V14.01,2013-09-20 20:30:00,
2013-09-20 15:35:00,71.6,66.5,29.83,WSW,246,0.0,0.0,84,0.03,,RA,0.23,VWS V14.01,2013-09-20 20:35:00,
2013-09-20 15:40:00,71.5,66.4,29.83,WSW,246,0.0,1.0,84,0.04,,RA,0.24,VWS V14.01,2013-09-20 20:40:00,
2013-09-20 15:45:00,71.3,66.2,29.83,WSW,246,0.0,0.0,84,0.04,,-RA,0.24,VWS V14.01,2013-09-20 20:45:00,
2013-09-20 15:50:00,71.1,66.0,29.83,WSW,246,0.0,0.0,84,0.04,,-RA,0.24,VWS V14.01,2013-09-20 20:50:00,
2013-09-20 15:55:00,71.0,65.9,29.83,WSW,258,2.0,3.0,84,0.04,,-RA,0.24,VWS V14.01,2013-09-20 20:55:00,
2013-09-20 16:00:00,70.6,65.5,29.83,West,263,0.0,3.0,84,0.04,,-RA,0.24,VWS V14.01,2013-09-20 21:00:00,
2013-09-20 16:05:00,70.5,65.4,29.83,West,263,0.0,0.0,84,0.03,,-RA,0.24,VWS V14.01,2013-09-20 21:05:00,
2013-09-20 16:10:00,70.3,65.2,29.82,WSW,248,0.0,4.0,84,0.03,,-RA,0.24,VWS V14.01,2013-09-20 21:10:00,
2013-09-20 16:15:00,70.4,65.3,29.82,WSW,248,0.0,3.0,84,0.02,,-RA,0.24,VWS V14.01,2013-09-20 21:15:00,
2013-09-20 16:20:00,70.4,65.3,29.83,WSW,248,0.0,3.0,84,0.02,,-RA,0.24,VWS V14.01,2013-09-20 21:20:00,
2013-09-20 16:25:00,70.4,65.3,29.83,WSW,248,0.0,0.0,84,0.01,,-RA,0.24,VWS V14.01,2013-09-20 21:25:00,
2013-09-20 16:30:00,70.5,65.4,29.83,WSW,248,0.0,0.0,84,0.01,,-RA,0.24,VWS V14.01,2013-09-20 21:30:00,
2013-09-20 16:35:00,70.5,65.4,29.82,WSW,248,0.0,0.0,84,0.01,,-RA,0.24,VWS V14.01,2013-09-20 21:35:00,
2013-09-20 16:40:00,70.5,65.4,29.82,WSW,248,0.0,0.0,84,0.01,,-RA,0.24,VWS V14.01,2013-09-20 21:40:00,
2013-09-20 16:45:00,70.3,65.2,29.82,WSW,248,0.0,1.0,84,0.00,,RA,0.24,VWS V14.01,2013-09-20 21:45:00,
2013-09-20 16:50:00,70.2,65.1,29.82,WSW,248,0.0,1.0,84,0.00,,RA,0.24,VWS V14.01,2013-09-20 21:50:00,
2013-09-20 16:55:00,70.2,65.1,29.82,WSW,248,0.0,0.0,84,0.00,,,0.24,VWS V14.01,2013-09-20 21:55:00,
2013-09-20 17:00:00,70.3,65.2,29.82,WSW,248,0.0,0.0,84,0.00,,,0.24,VWS V14.01,2013-09-20 22:00:00,
2013-09-20 17:05:00,70.3,65.2,29.82,WSW,248,0.0,1.0,84,0.00,,,0.24,VWS V14.01,2013-09-20 22:05:00,
2013-09-20 17:10:00,70.4,65.0,29.82,WSW,248,0.0,1.0,83,0.00,,,0.24,VWS V14.01,2013-09-20 22:10:00,
2013-09-20 17:15:00,70.4,65.0,29.82,WSW,248,0.0,0.0,83,0.00,,,0.24,VWS V14.01,2013-09-20 22:15:00,
2013-09-20 17:20:00,70.6,65.2,29.82,WSW,248,0.0,0.0,83,0.00,,,0.24,VWS V14.01,2013-09-20 22:20:00,
2013-09-20 17:25:00,70.6,65.2,29.81,WSW,248,0.0,1.0,83,0.00,,,0.24,VWS V14.01,2013-09-20 22:25:00,
2013-09-20 17:30:00,70.7,65.3,29.82,WSW,248,0.0,1.0,83,0.00,,,0.24,VWS V14.01,2013-09-20 22:30:00,
2013-09-20 17:35:00,70.7,65.3,29.82,WSW,248,0.0,0.0,83,0.00,,,0.24,VWS V14.01,2013-09-20 22:35:00,
2013-09-20 17:40:00,70.6,65.2,29.82,West,261,0.0,2.0,83,0.00,,,0.24,VWS V14.01,2013-09-20 22:40:00,
2013-09-20 17:45:00,70.3,65.2,29.82,West,261,0.0,2.0,84,0.00,,,0.24,VWS V14.01,2013-09-20 22:45:00,
2013-09-20 17:50:00,70.1,64.7,29.82,West,261,0.0,2.0,83,0.00,,,0.24,VWS V14.01,2013-09-20 22:50:00,
2013-09-20 17:55:00,69.9,64.8,29.82,West,261,0.0,0.0,84,0.00,,,0.24,VWS V14.01,2013-09-20 22:55:00,
2013-09-20 18:00:00,69.8,64.4,29.82,West,261,0.0,3.0,83,0.00,,,0.24,VWS V14.01,2013-09-20 23:00:00,
2013-09-20 18:05:00,69.7,64.3,29.82,West,261,0.0,1.0,83,0.00,,,0.24,VWS V14.01,2013-09-20 23:05:00,
2013-09-20 18:10:00,69.7,64.3,29.83,West,261,0.0,2.0,83,0.00,,,0.24,VWS V14.01,2013-09-20 23:10:00,
2013-09-20 18:15:00,69.6,64.2,29.83,West,261,0.0,3.0,83,0.00,,,0.24,VWS V14.01,2013-09-20 23:15:00,
2013-09-20 18:20:00,69.6,64.2,29.83,West,261,0.0,3.0,83,0.00,,,0.24,VWS V14.01,2013-09-20 23:20:00,
2013-09-20 18:25:00,69.5,64.1,29.82,West,261,2.0,4.0,83,0.00,,,0.24,VWS V14.01,2013-09-20 23:25:00,
2013-09-20 18:30:00,69.5,64.1,29.83,West,261,0.0,4.0,83,0.00,,,0.24,VWS V14.01,2013-09-20 23:30:00,
2013-09-20 18:35:00,69.4,64.0,29.82,WSW,242,0.0,2.0,83,0.00,,,0.24,VWS V14.01,2013-09-20 23:35:00,
2013-09-20 18:40:00,69.2,63.8,29.83,WSW,242,0.0,2.0,83,0.00,,,0.24,VWS V14.01,2013-09-20 23:40:00,
2013-09-20 18:45:00,69.1,63.7,29.82,WSW,242,0.0,1.0,83,0.00,,,0.24,VWS V14.01,2013-09-20 23:45:00,
2013-09-20 18:50:00,68.9,63.5,29.83,WSW,240,0.0,4.0,83,0.00,,,0.24,VWS V14.01,2013-09-20 23:50:00,
2013-09-20 18:55:00,68.7,63.3,29.83,WSW,240,0.0,3.0,83,0.00,,,0.24,VWS V14.01,2013-09-20 23:55:00,
2013-09-20 19:00:00,68.7,63.3,29.83,WSW,240,0.0,3.0,83,0.00,,,0.24,VWS V14.01,2013-09-21 00:00:00,
2013-09-20 19:05:00,68.6,63.2,29.82,WSW,240,0.0,0.0,83,0.00,,,0.24,VWS V14.01,2013-09-21 00:05:00,
2013-09-20 19:10:00,68.6,63.2,29.82,WSW,240,0.0,0.0,83,0.00,,,0.24,VWS V14.01,2013-09-21 00:10:00,
2013-09-20 19:15:00,68.6,63.2,29.83,WSW,240,0.0,0.0,83,0.00,,,0.24,VWS V14.01,2013-09-21 00:15:00,
2013-09-20 19:20:00,68.5,63.1,29.83,WSW,240,0.0,0.0,83,0.00,,,0.24,VWS V14.01,2013-09-21 00:20:00,
2013-09-20 19:25:00,68.5,63.1,29.83,WSW,240,0.0,0.0,83,0.00,,,0.24,VWS V14.01,2013-09-21 00:25:00,
2013-09-20 19:30:00,68.4,63.0,29.83,WSW,240,0.0,1.0,83,0.00,,,0.24,VWS V14.01,2013-09-21 00:30:00,
2013-09-20 19:35:00,68.3,62.9,29.82,WSW,240,0.0,0.0,83,0.00,,,0.24,VWS V14.01,2013-09-21 00:35:00,
2013-09-20 19:40:00,68.2,62.8,29.83,WSW,240,0.0,0.0,83,0.00,,,0.24,VWS V14.01,2013-09-21 00:40:00,
2013-09-20 19:45:00,68.1,62.8,29.83,WSW,240,0.0,0.0,83,0.00,,RA,0.24,VWS V14.01,2013-09-21 00:45:00,
2013-09-20 19:50:00,68.1,62.8,29.83,WSW,240,0.0,0.0,83,0.00,,RA,0.24,VWS V14.01,2013-09-21 00:50:00,
2013-09-20 19:55:00,68.0,62.7,29.83,WSW,240,0.0,2.0,83,0.00,,,0.24,VWS V14.01,2013-09-21 00:55:00,
2013-09-20 20:00:00,67.9,62.5,29.83,WSW,240,0.0,2.0,83,0.00,,,0.24,VWS V14.01,2013-09-21 01:00:00,
2013-09-20 20:05:00,67.8,62.5,29.83,WSW,240,0.0,0.0,83,0.00,,,0.24,VWS V14.01,2013-09-21 01:05:00,
2013-09-20 20:10:00,67.9,62.5,29.84,WSW,240,0.0,0.0,83,0.00,,,0.24,VWS V14.01,2013-09-21 01:10:00,
2013-09-20 20:15:00,67.9,62.2,29.84,WSW,240,0.0,0.0,82,0.00,,,0.24,VWS V14.01,2013-09-21 01:15:00,
2013-09-20 20:20:00,67.9,62.5,29.84,WSW,240,0.0,0.0,83,0.00,,,0.24,VWS V14.01,2013-09-21 01:20:00,
2013-09-20 20:25:00,67.8,62.5,29.84,WSW,240,0.0,0.0,83,0.00,,,0.24,VWS V14.01,2013-09-21 01:25:00,
2013-09-20 20:30:00,67.8,62.5,29.84,WSW,240,0.0,0.0,83,0.00,,,0.24,VWS V14.01,2013-09-21 01:30:00,
2013-09-20 20:35:00,67.7,62.4,29.84,WSW,240,0.0,0.0,83,0.00,,,0.24,VWS V14.01,2013-09-21 01:35:00,
2013-09-20 20:40:00,67.5,62.2,29.85,NNE,30,0.0,4.0,83,0.00,,,0.24,VWS V14.01,2013-09-21 01:40:00,
2013-09-20 20:45:00,67.2,61.9,29.84,SSE,166,0.0,2.0,83,0.00,,,0.24,VWS V14.01,2013-09-21 01:45:00,
2013-09-20 20:50:00,67.0,61.7,29.84,SSE,166,0.0,2.0,83,0.00,,,0.24,VWS V14.01,2013-09-21 01:50:00,
2013-09-20 20:55:00,66.8,61.5,29.85,SSE,166,0.0,0.0,83,0.00,,,0.24,VWS V14.01,2013-09-21 01:55:00,
2013-09-20 21:00:00,66.5,61.2,29.84,SSE,166,0.0,0.0,83,0.00,,,0.24,VWS V14.01,2013-09-21 02:00:00,
2013-09-20 21:05:00,66.3,61.0,29.85,South,184,0.0,1.0,83,0.00,,,0.24,VWS V14.01,2013-09-21 02:05:00,
2013-09-20 21:10:00,66.0,61.0,29.85,South,183,0.0,1.0,84,0.00,,,0.24,VWS V14.01,2013-09-21 02:10:00,
2013-09-20 21:15:00,65.9,60.9,29.85,South,183,0.0,0.0,84,0.00,,,0.24,VWS V14.01,2013-09-21 02:15:00,
2013-09-20 21:20:00,65.7,60.7,29.85,South,183,0.0,0.0,84,0.00,,,0.24,VWS V14.01,2013-09-21 02:20:00,
2013-09-20 21:25:00,65.6,60.6,29.85,South,183,0.0,0.0,84,0.00,,,0.24,VWS V14.01,2013-09-21 02:25:00,
2013-09-20 21:30:00,65.6,60.6,29.85,South,183,0.0,0.0,84,0.00,,,0.24,VWS V14.01,2013-09-21 02:30:00,
2013-09-20 21:35:00,65.5,60.5,29.85,South,183,0.0,0.0,84,0.00,,,0.24,VWS V14.01,2013-09-21 02:35:00,
2013-09-20 21:40:00,65.4,60.5,29.86,South,183,0.0,0.0,84,0.00,,,0.24,VWS V14.01,2013-09-21 02:40:00,
2013-09-20 21:45:00,65.3,60.3,29.86,South,183,0.0,0.0,84,0.00,,,0.24,VWS V14.01,2013-09-21 02:45:00,
2013-09-20 21:50:00,65.2,60.2,29.85,South,183,0.0,0.0,84,0.00,,,0.24,VWS V14.01,2013-09-21 02:50:00,
2013-09-20 21:55:00,65.1,60.2,29.85,South,183,0.0,0.0,84,0.00,,,0.24,VWS V14.01,2013-09-21 02:55:00,
2013-09-20 22:00:00,65.0,60.0,29.85,South,183,0.0,0.0,84,0.00,,,0.24,VWS V14.01,2013-09-21 03:00:00,
2013-09-20 22:05:00,64.9,60.0,29.85,South,183,0.0,0.0,84,0.00,,,0.24,VWS V14.01,2013-09-21 03:05:00,
2013-09-20 22:10:00,64.9,60.0,29.85,South,183,0.0,0.0,84,0.00,,,0.24,VWS V14.01,2013-09-21 03:10:00,
2013-09-20 22:15:00,64.7,59.8,29.85,South,183,0.0,0.0,84,0.00,,,0.24,VWS V14.01,2013-09-21 03:15:00,
2013-09-20 22:20:00,64.6,60.0,29.85,South,183,0.0,0.0,85,0.00,,,0.24,VWS V14.01,2013-09-21 03:20:00,
2013-09-20 22:25:00,64.5,59.9,29.85,South,183,0.0,0.0,85,0.00,,,0.24,VWS V14.01,2013-09-21 03:25:00,
2013-09-20 22:30:00,64.4,59.8,29.85,South,183,0.0,0.0,85,0.00,,,0.24,VWS V14.01,2013-09-21 03:30:00,
2013-09-20 22:35:00,64.3,59.7,29.85,South,183,0.0,0.0,85,0.00,,,0.24,VWS V14.01,2013-09-21 03:35:00,
2013-09-20 22:40:00,64.2,59.6,29.85,South,183,0.0,0.0,85,0.00,,,0.24,VWS V14.01,2013-09-21 03:40:00,
2013-09-20 22:45:00,64.2,59.6,29.85,South,183,0.0,0.0,85,0.00,,,0.24,VWS V14.01,2013-09-21 03:45:00,
2013-09-20 22:50:00,64.1,59.5,29.85,South,183,0.0,0.0,85,0.00,,,0.24,VWS V14.01,2013-09-21 03:50:00,
2013-09-20 22:55:00,64.0,59.4,29.85,South,183,0.0,0.0,85,0.00,,,0.24,VWS V14.01,2013-09-21 03:55:00,
2013-09-20 23:00:00,63.9,59.3,29.85,South,183,0.0,0.0,85,0.00,,,0.24,VWS V14.01,2013-09-21 04:00:00,
2013-09-20 23:01:00,63.9,59.3,29.85,South,183,0.0,0.0,85,0.00,,,0.24,VWS V14.01,2013-09-21 04:01:00,
2013-09-20 23:05:00,63.8,59.2,29.85,South,183,0.0,0.0,85,0.00,,,0.24,VWS V14.01,2013-09-21 04:05:00,
2013-09-20 23:10:00,63.6,59.0,29.85,South,183,1.0,1.0,85,0.00,,,0.24,VWS V14.01,2013-09-21 04:10:00,
2013-09-20 23:15:00,63.4,58.8,29.85,South,183,0.0,1.0,85,0.00,,,0.24,VWS V14.01,2013-09-21 04:15:00,
2013-09-20 23:20:00,63.1,58.5,29.85,NNE,32,0.0,2.0,85,0.00,,,0.24,VWS V14.01,2013-09-21 04:20:00,
2013-09-20 23:26:00,62.8,58.6,29.85,NNE,32,0.0,0.0,86,0.00,,,0.24,VWS V14.01,2013-09-21 04:26:00,
2013-09-20 23:31:00,62.6,58.4,29.85,North,355,0.0,1.0,86,0.00,,,0.24,VWS V14.01,2013-09-21 04:31:00,
2013-09-20 23:36:00,62.5,58.3,29.85,North,355,0.0,1.0,86,0.00,,,0.24,VWS V14.01,2013-09-21 04:36:00,
2013-09-20 23:41:00,62.3,58.1,29.85,North,355,0.0,1.0,86,0.00,,,0.24,VWS V14.01,2013-09-21 04:41:00,
2013-09-20 23:46:00,62.1,58.2,29.85,NNW,344,0.0,1.0,87,0.00,,,0.24,VWS V14.01,2013-09-21 04:46:00,
2013-09-20 23:51:00,62.0,57.8,29.85,NNW,344,0.0,1.0,86,0.00,,,0.24,VWS V14.01,2013-09-21 04:51:00,
2013-09-20 23:56:00,61.8,57.6,29.86,NNW,344,1.0,1.0,86,0.00,,,0.24,VWS V14.01,2013-09-21 04:56:00,